Location: Wiesbaden
(50.0830°N, 8.2500°E)
Time: 06:13:40
(UTC+01:00)

ISS - Pass Details

Date: 04 December 2019
Orbit: 411 x 421 km, 51.6° (Epoch: 15 December)

Event Time Altitude Azimuth Distance (km) Brightness Sun altitude
Rises 18:23:33 0° 284° (WNW) 2,360 1.2 -17.9°
Reaches altitude 10° 18:25:39 10° 285° (WNW) 1,498 0.0 -18.2°
Maximum altitude 18:29:01 85° 15° (NNE) 425 -3.9 -18.7°
Enters shadow 18:29:22 69° 91° (E) 451 -3.9 -18.8°
